 day, avr_air_temp(C), avr_RH(%), avr_ground_temp10cm(C), avr_ground_temp20cm(C), avr_ground_temp40cm(C), sum_precipitation(mm/h), sum_Solar_Radiation(MJ/m2h), max_air_temp(C), max_air_temp(time), max_RH(%), max_RH(time), max_ground_temp10cm(C), max_ground_temp10cm(time), max_ground_temp20cm(C), max_ground_temp20cm(time), max_ground_temp40cm(C), max_ground_temp40cm(time), max_precipitation(mm/h), max_precipitation(time), max_Solar_Radiation(MJ/m2h), max_Solar_Radiation(time), min_air_temp(C), min_air_temp(time), min_RH(%), min_RH(time), min_ground_temp10cm(C), min_ground_temp10cm(time), min_ground_temp20cm(C), min_ground_temp20cm(time), min_ground_temp40cm(C), min_ground_temp40cm(time), 
 05/01/01, -7.6, 88, 0.4, 1.3, 3, 9.5, 6.85, -5.4,  05/01/01 01:00, 97, 05/01/01 05:00, 0.5, 05/01/01 11:00, 1.3, 05/01/01 01:00, 3.1, 05/01/01 01:00, 3, 05/01/01 04:00, 1.49, 05/01/01 11:00, -11.6,  05/01/01 23:00, 77, 05/01/01 11:00, 0.4, 05/01/01 01:00, 1.3, 05/01/01 01:00, 3, 05/01/01 11:00, 
 05/01/02, -6.7, 78, 0.4, 1.3, 3, 0, 10.35, -2.1,  05/01/02 14:00, 90, 05/01/02 23:00, 0.5, 05/01/02 12:00, 1.3, 05/01/02 01:00, 3, 05/01/02 01:00, 0,   /  /     :, 1.95, 05/01/02 12:00, -10.3,  05/01/02 01:00, 62, 05/01/02 12:00, 0.4, 05/01/02 01:00, 1.3, 05/01/02 01:00, 3, 05/01/02 01:00, 
 05/01/03, -3.4, 77, 0.4, 1.3, 3, 0, 9.41, 0.4,  05/01/03 23:00, 93, 05/01/03 05:00, 0.5, 05/01/03 10:00, 1.3, 05/01/03 01:00, 3, 05/01/03 01:00, 0,   /  /     :, 1.73, 05/01/03 13:00, -10.4,  05/01/03 05:00, 57, 05/01/03 13:00, 0.4, 05/01/03 01:00, 1.3, 05/01/03 01:00, 3, 05/01/03 01:00, 
 05/01/04, -2.2, 97, 0.5, 1.3, 3, 6.5, 1.43, 0.8,  05/01/04 05:00, 99, 05/01/04 02:00, 0.6, 05/01/04 13:00, 1.4, 05/01/04 13:00, 3.1, 05/01/04 12:00, 1.5, 05/01/04 15:00, 0.54, 05/01/04 13:00, -8.2,  05/01/05 00:00, 90, 05/01/04 01:00, 0.4, 05/01/04 01:00, 1.3, 05/01/04 01:00, 2.9, 05/01/04 09:00, 
 05/01/05, -9.2, 82, 0.6, 1.3, 2.9, 0.5, 10.84, -6,  05/01/06 00:00, 92, 05/01/05 20:00, 0.6, 05/01/05 06:00, 1.4, 05/01/05 23:00, 2.9, 05/01/05 01:00, 0.5, 05/01/05 02:00, 2.23, 05/01/05 12:00, -11.9,  05/01/05 21:00, 49, 05/01/06 00:00, 0.5, 05/01/05 01:00, 1.3, 05/01/05 01:00, 2.9, 05/01/05 01:00, 
 05/01/06, -2, 85, 0.6, 1.4, 2.9, 4, 3.98, 1.4,  05/01/06 14:00, 99, 05/01/06 16:00, 0.7, 05/01/06 13:00, 1.5, 05/01/06 13:00, 3, 05/01/06 13:00, 1, 05/01/06 18:00, 1.11, 05/01/06 14:00, -8.2,  05/01/06 02:00, 56, 05/01/06 01:00, 0.5, 05/01/06 02:00, 1.3, 05/01/06 01:00, 2.9, 05/01/06 01:00, 
 05/01/07, -2.8, 96, 0.6, 1.5, 3, 10.5, 1.91, -1.1,  05/01/07 11:00, 99, 05/01/07 08:00, 0.7, 05/01/08 00:00, 1.5, 05/01/07 01:00, 3, 05/01/07 01:00, 4, 05/01/07 21:00, 0.47, 05/01/07 11:00, -7.3,  05/01/08 00:00, 91, 05/01/07 05:00, 0.6, 05/01/07 01:00, 1.4, 05/01/07 05:00, 2.9, 05/01/07 05:00, 
 05/01/08, -7.5, 80, 0.7, 1.4, 2.9, 1, 10.67, -5.4,  05/01/08 14:00, 92, 05/01/08 06:00, 0.7, 05/01/08 02:00, 1.5, 05/01/08 12:00, 3, 05/01/08 12:00, 0.5, 05/01/08 04:00, 2.05, 05/01/08 14:00, -9,  05/01/08 08:00, 59, 05/01/08 16:00, 0.6, 05/01/08 01:00, 1.4, 05/01/08 01:00, 2.9, 05/01/08 01:00, 
 05/01/09, -8.2, 89, 0.7, 1.4, 2.9, 4.5, 3.42, -6.2,  05/01/09 10:00, 96, 05/01/09 07:00, 0.7, 05/01/09 01:00, 1.5, 05/01/09 15:00, 2.9, 05/01/09 01:00, 1, 05/01/09 08:00, 0.78, 05/01/09 13:00, -11.2,  05/01/09 20:00, 81, 05/01/10 00:00, 0.7, 05/01/09 01:00, 1.4, 05/01/09 01:00, 2.9, 05/01/09 01:00, 
 05/01/10, -7.9, 87, 0.8, 1.5, 2.9, 4.5, 5.44, -5.2,  05/01/10 15:00, 97, 05/01/10 19:00, 0.8, 05/01/10 10:00, 1.5, 05/01/10 01:00, 2.9, 05/01/10 01:00, 1, 05/01/10 22:00, 1.22, 05/01/10 15:00, -11.8,  05/01/10 04:00, 74, 05/01/10 05:00, 0.7, 05/01/10 01:00, 1.5, 05/01/10 01:00, 2.9, 05/01/10 01:00, 
 05/01/11, -7, 96, 0.8, 1.5, 2.9, 19, 1.51, -5.6,  05/01/11 15:00, 99, 05/01/11 11:00, 0.9, 05/01/11 22:00, 1.6, 05/01/11 22:00, 2.9, 05/01/11 01:00, 2.5, 05/01/11 10:00, 0.34, 05/01/11 15:00, -7.7,  05/01/11 03:00, 93, 05/01/11 02:00, 0.8, 05/01/11 01:00, 1.5, 05/01/11 01:00, 2.9, 05/01/11 01:00, 
 05/01/12, -8.5, 94, 1, 1.6, 2.9, 13, 2.97, -7.1,  05/01/12 01:00, 99, 05/01/12 11:00, 1, 05/01/12 11:00, 1.7, 05/01/12 14:00, 2.9, 05/01/12 01:00, 2.5, 05/01/12 10:00, 0.57, 05/01/12 12:00, -10.2,  05/01/12 17:00, 90, 05/01/12 16:00, 0.9, 05/01/12 01:00, 1.6, 05/01/12 01:00, 2.9, 05/01/12 01:00, 
 05/01/13, -6.5, 85, 1, 1.6, 2.9, 2, 5.71, -3.5,  05/01/13 14:00, 94, 05/01/13 06:00, 1, 05/01/13 11:00, 1.6, 05/01/13 01:00, 2.9, 05/01/13 01:00, 0.5, 05/01/13 01:00, 1.37, 05/01/13 14:00, -9.4,  05/01/13 02:00, 70, 05/01/13 22:00, 0.9, 05/01/13 01:00, 1.6, 05/01/13 01:00, 2.9, 05/01/13 01:00, 
 05/01/14, -4.6, 91, 1.1, 1.6, 2.9, 0.5, 6.89, -1.6,  05/01/14 23:00, 97, 05/01/14 19:00, 1.1, 05/01/14 09:00, 1.7, 05/01/14 12:00, 3, 05/01/14 12:00, 0.5, 05/01/15 00:00, 2, 05/01/14 12:00, -8.1,  05/01/14 08:00, 74, 05/01/14 23:00, 1, 05/01/14 01:00, 1.6, 05/01/14 01:00, 2.9, 05/01/14 01:00, 
 05/01/15, -0.5, 94, 1, 1.6, 2.9, 8, 7.73, 3.1,  05/01/15 13:00, 99, 05/01/15 18:00, 1.1, 05/01/15 04:00, 1.7, 05/01/15 13:00, 2.9, 05/01/15 01:00, 1.5, 05/01/15 19:00, 1.98, 05/01/15 13:00, -3,  05/01/15 02:00, 76, 05/01/15 13:00, 1, 05/01/15 01:00, 1.6, 05/01/15 01:00, 2.9, 05/01/15 01:00, 
 05/01/16, -2.7, 96, 1, 1.6, 2.9, 9, 1, -1.5,  05/01/16 01:00, 99, 05/01/16 01:00, 1, 05/01/16 01:00, 1.6, 05/01/16 01:00, 2.9, 05/01/16 01:00, 1.5, 05/01/16 14:00, 0.29, 05/01/16 16:00, -5.7,  05/01/17 00:00, 82, 05/01/16 21:00, 1, 05/01/16 01:00, 1.6, 05/01/16 01:00, 2.9, 05/01/16 01:00, 
 05/01/17, -4.6, 98, 1, 1.6, 2.9, 7, 2.15, -3.3,  05/01/17 12:00, 99, 05/01/17 04:00, 1, 05/01/17 01:00, 1.6, 05/01/17 01:00, 2.9, 05/01/17 01:00, 1, 05/01/17 07:00, 0.41, 05/01/17 15:00, -5.9,  05/01/17 22:00, 93, 05/01/17 01:00, 1, 05/01/17 01:00, 1.6, 05/01/17 01:00, 2.9, 05/01/17 01:00, 
 05/01/18, -5, 89, 1, 1.6, 2.9, 0.5, 9.06, -2.2,  05/01/18 14:00, 99, 05/01/18 09:00, 1, 05/01/18 01:00, 1.6, 05/01/18 01:00, 2.9, 05/01/18 01:00, 0.5, 05/01/18 12:00, 2.04, 05/01/18 13:00, -7.3,  05/01/18 07:00, 75, 05/01/18 17:00, 0.9, 05/01/18 04:00, 1.6, 05/01/18 01:00, 2.8, 05/01/18 09:00, 
 05/01/19, -3.6, 85, 0.9, 1.5, 2.8, 1.5, 4.16, -2.3,  05/01/19 11:00, 99, 05/01/19 20:00, 0.9, 05/01/19 01:00, 1.6, 05/01/19 01:00, 2.9, 05/01/19 13:00, 0.5, 05/01/19 20:00, 0.99, 05/01/19 11:00, -6.7,  05/01/19 01:00, 69, 05/01/19 03:00, 0.8, 05/01/19 09:00, 1.5, 05/01/19 07:00, 2.8, 05/01/19 01:00, 
 05/01/20, -6.7, 95, 0.8, 1.5, 2.8, 14, 2.57, -6,  05/01/20 01:00, 99, 05/01/20 12:00, 0.9, 05/01/20 01:00, 1.5, 05/01/20 01:00, 2.8, 05/01/20 01:00, 2, 05/01/20 22:00, 0.64, 05/01/20 14:00, -7.3,  05/01/20 17:00, 87, 05/01/20 02:00, 0.8, 05/01/20 07:00, 1.5, 05/01/20 01:00, 2.8, 05/01/20 01:00, 
 05/01/21, -8, 95, 0.8, 1.5, 2.8, 19.5, 4.61, -7.1,  05/01/21 02:00, 99, 05/01/21 11:00, 0.8, 05/01/21 01:00, 1.5, 05/01/21 01:00, 2.8, 05/01/21 01:00, 2.5, 05/01/21 01:00, 1.11, 05/01/21 13:00, -9.1,  05/01/22 00:00, 91, 05/01/21 17:00, 0.8, 05/01/21 01:00, 1.5, 05/01/21 01:00, 2.8, 05/01/21 01:00, 
 05/01/22, -8.2, 88, 0.8, 1.5, 2.8, 1.5, 11.75, -5,  05/01/22 15:00, 95, 05/01/22 02:00, 0.9, 05/01/22 13:00, 1.5, 05/01/22 01:00, 2.8, 05/01/22 01:00, 0.5, 05/01/22 02:00, 2.2, 05/01/22 13:00, -10.3,  05/01/22 22:00, 77, 05/01/22 16:00, 0.8, 05/01/22 01:00, 1.4, 05/01/22 17:00, 2.7, 05/01/22 23:00, 
 05/01/23, -5.8, 82, 0.8, 1.4, 2.7, 0.5, 6.28, -1.7,  05/01/23 12:00, 97, 05/01/23 20:00, 0.8, 05/01/23 01:00, 1.4, 05/01/23 01:00, 2.7, 05/01/23 01:00, 0.5, 05/01/23 03:00, 1.24, 05/01/23 13:00, -10.8,  05/01/23 02:00, 60, 05/01/23 11:00, 0.7, 05/01/23 13:00, 1.4, 05/01/23 01:00, 2.7, 05/01/23 01:00, 
 05/01/24, -3.3, 65, 0.8, 1.4, 2.7, 0, 10.51, 0,  05/01/24 14:00, 99, 05/01/24 23:00, 0.8, 05/01/24 11:00, 1.5, 05/01/24 12:00, 2.8, 05/01/24 13:00, 0,   /  /     :, 1.89, 05/01/24 11:00, -8.9,  05/01/24 01:00, 42, 05/01/24 06:00, 0.7, 05/01/24 01:00, 1.4, 05/01/24 01:00, 2.6, 05/01/24 17:00, 
 05/01/25, -4.3, 93, 0.9, 1.5, 2.7, 2, 7.53, -2.5,  05/01/25 01:00, 99, 05/01/25 01:00, 0.9, 05/01/25 04:00, 1.5, 05/01/25 11:00, 2.8, 05/01/25 11:00, 0.5, 05/01/25 01:00, 1.55, 05/01/25 11:00, -6.2,  05/01/26 00:00, 76, 05/01/25 13:00, 0.8, 05/01/25 01:00, 1.4, 05/01/25 01:00, 2.6, 05/01/25 17:00, 
 05/01/26, -6.7, 91, 0.9, 1.5, 2.8, 0.5, 8.02, -4.9,  05/01/26 13:00, 99, 05/01/26 02:00, 1, 05/01/26 13:00, 1.5, 05/01/26 01:00, 2.8, 05/01/26 01:00, 0.5, 05/01/26 20:00, 2.28, 05/01/26 13:00, -9.3,  05/01/27 00:00, 73, 05/01/26 14:00, 0.9, 05/01/26 01:00, 1.4, 05/01/26 03:00, 2.6, 05/01/26 04:00, 
 05/01/27, -5.4, 65, 0.9, 1.4, 2.7, 0, 9.31, -1.1,  05/01/27 14:00, 88, 05/01/27 01:00, 0.9, 05/01/27 01:00, 1.5, 05/01/27 01:00, 2.8, 05/01/27 01:00, 0,   /  /     :, 1.51, 05/01/27 10:00, -11.8,  05/01/27 07:00, 40, 05/01/27 13:00, 0.9, 05/01/27 01:00, 1.4, 05/01/27 02:00, 2.6, 05/01/27 18:00, 
 05/01/28, -1.9, 57, 0.9, 1.4, 2.6, 0, 13.86, 1.8,  05/01/28 13:00, 81, 05/01/28 03:00, 0.9, 05/01/28 01:00, 1.5, 05/01/28 11:00, 2.7, 05/01/28 02:00, 0,   /  /     :, 2.3, 05/01/28 12:00, -4.3,  05/01/28 03:00, 32, 05/01/28 11:00, 0.7, 05/01/28 08:00, 1.4, 05/01/28 01:00, 2.5, 05/01/28 18:00, 
 05/01/29, 0.3, 75, 0.9, 1.4, 2.6, 4.5, 4.39, 3.3,  05/01/29 09:00, 99, 05/01/29 18:00, 0.9, 05/01/29 01:00, 1.4, 05/01/29 01:00, 2.6, 05/01/29 01:00, 1.5, 05/01/29 22:00, 1.06, 05/01/29 10:00, -3.9,  05/01/29 04:00, 29, 05/01/29 08:00, 0.8, 05/01/29 07:00, 1.3, 05/01/29 20:00, 2.5, 05/01/29 03:00, 
 05/01/30, -7.6, 91, 0.8, 1.4, 2.6, 5, 7.25, -1.4,  05/01/30 01:00, 99, 05/01/30 01:00, 0.9, 05/01/30 03:00, 1.4, 05/01/30 01:00, 2.6, 05/01/30 01:00, 2, 05/01/30 02:00, 1.48, 05/01/30 13:00, -10.8,  05/01/30 23:00, 74, 05/01/30 14:00, 0.8, 05/01/30 01:00, 1.3, 05/01/30 12:00, 2.5, 05/01/30 18:00, 
 05/01/31, -9.2, 94, 0.7, 1.3, 2.6, 7, 3.54, -6,  05/01/31 14:00, 99, 05/01/31 16:00, 0.8, 05/01/31 01:00, 1.3, 05/01/31 01:00, 2.6, 05/01/31 01:00, 1.5, 05/01/31 17:00, 0.89, 05/01/31 10:00, -12.8,  05/01/31 04:00, 83, 05/01/31 07:00, 0.7, 05/01/31 07:00, 1.3, 05/01/31 01:00, 2.6, 05/01/31 01:00, 
 05/02/01, -10.4, 97, 0.7, 1.3, 2.5, 35.5, 1.05, -9.2,  05/02/01 11:00, 99, 05/02/01 11:00, 0.7, 05/02/01 01:00, 1.3, 05/02/01 01:00, 2.6, 05/02/01 01:00, 4, 05/02/01 18:00, 0.19, 05/02/01 13:00, -11.2,  05/02/01 07:00, 92, 05/02/01 06:00, 0.6, 05/02/01 14:00, 1.3, 05/02/01 01:00, 2.4, 05/02/01 23:00, 
 05/02/02, -9.4, 98, 0.7, 1.3, 2.5, 26.5, 3.37, -7.5,  05/02/02 14:00, 99, 05/02/02 01:00, 0.7, 05/02/02 03:00, 1.3, 05/02/02 01:00, 2.5, 05/02/02 01:00, 4, 05/02/02 01:00, 0.67, 05/02/02 15:00, -11,  05/02/02 01:00, 93, 05/02/02 21:00, 0.6, 05/02/02 01:00, 1.2, 05/02/02 21:00, 2.4, 05/02/02 18:00, 
 05/02/03, -8.4, 98, 0.7, 1.2, 2.5, 5, 4.38, -6.5,  05/02/03 13:00, 99, 05/02/03 01:00, 0.8, 05/02/03 13:00, 1.3, 05/02/03 13:00, 2.6, 05/02/03 13:00, 0.5, 05/02/03 02:00, 0.87, 05/02/03 12:00, -9.9,  05/02/03 02:00, 88, 05/02/04 00:00, 0.6, 05/02/03 04:00, 1.2, 05/02/03 01:00, 2.5, 05/02/03 01:00, 
 05/02/04, -5.8, 93, 0.7, 1.2, 2.5, 2.5, 4.45, -3.5,  05/02/04 11:00, 99, 05/02/04 08:00, 0.7, 05/02/04 01:00, 1.2, 05/02/04 01:00, 2.5, 05/02/04 01:00, 0.5, 05/02/04 04:00, 0.85, 05/02/04 12:00, -8.7,  05/02/04 01:00, 83, 05/02/04 13:00, 0.7, 05/02/04 01:00, 1.2, 05/02/04 01:00, 2.4, 05/02/04 17:00, 
 05/02/05, -6.8, 94, 0.7, 1.2, 2.5, 7.5, 4.74, -4.7,  05/02/05 13:00, 99, 05/02/05 02:00, 0.7, 05/02/05 01:00, 1.2, 05/02/05 01:00, 2.5, 05/02/05 01:00, 1, 05/02/05 02:00, 0.85, 05/02/05 12:00, -9.4,  05/02/05 22:00, 89, 05/02/05 09:00, 0.7, 05/02/05 01:00, 1.2, 05/02/05 01:00, 2.4, 05/02/05 19:00, 
 05/02/06, -8.2, 86, 0.7, 1.2, 2.4, 1.5, 11.57, -5.1,  05/02/06 13:00, 94, 05/02/06 01:00, 0.8, 05/02/06 12:00, 1.3, 05/02/06 11:00, 2.5, 05/02/06 01:00, 0.5, 05/02/06 02:00, 2.58, 05/02/06 13:00, -10.6,  05/02/07 00:00, 77, 05/02/06 12:00, 0.7, 05/02/06 01:00, 1.2, 05/02/06 01:00, 2.3, 05/02/06 20:00, 
 05/02/07, -5.6, 87, 0.7, 1.2, 2.4, 0, 9.86, -0.6,  05/02/07 15:00, 99, 05/02/08 00:00, 0.8, 05/02/07 10:00, 1.3, 05/02/07 10:00, 2.5, 05/02/07 08:00, 0,   /  /     :, 1.61, 05/02/07 15:00, -12.1,  05/02/07 03:00, 71, 05/02/07 16:00, 0.7, 05/02/07 01:00, 1.2, 05/02/07 01:00, 2.4, 05/02/07 01:00, 
 05/02/08, 0.1, 98, 0.7, 1.2, 2.4, 5.5, 1.06, 1.3,  05/02/08 09:00, 99, 05/02/08 01:00, 0.7, 05/02/08 01:00, 1.2, 05/02/08 01:00, 2.5, 05/02/08 19:00, 1.5, 05/02/08 12:00, 0.18, 05/02/08 11:00, -2.7,  05/02/09 00:00, 93, 05/02/08 02:00, 0.7, 05/02/08 01:00, 1.2, 05/02/08 01:00, 2.4, 05/02/08 01:00, 
 05/02/09, 0.2, 75, 0.8, 1.3, 2.5, 0, 16.63, 4.3,  05/02/09 16:00, 99, 05/02/10 00:00, 0.9, 05/02/09 12:00, 1.3, 05/02/09 11:00, 2.5, 05/02/09 01:00, 0,   /  /     :, 2.55, 05/02/09 13:00, -5,  05/02/09 07:00, 39, 05/02/09 16:00, 0.7, 05/02/09 01:00, 1.2, 05/02/09 01:00, 2.4, 05/02/09 02:00, 
 05/02/10, -2.7, 98, 0.8, 1.3, 2.5, 5.5, 5.66, 0.7,  05/02/10 02:00, 99, 05/02/10 01:00, 0.8, 05/02/10 01:00, 1.3, 05/02/10 01:00, 2.5, 05/02/10 01:00, 1.5, 05/02/10 04:00, 1.38, 05/02/10 16:00, -8.1,  05/02/11 00:00, 92, 05/02/10 16:00, 0.7, 05/02/10 07:00, 1.3, 05/02/10 01:00, 2.5, 05/02/10 01:00, 
 05/02/11, -8.4, 81, 0.8, 1.3, 2.5, 0.5, 13.1, -5.3,  05/02/11 14:00, 97, 05/02/11 01:00, 0.8, 05/02/11 01:00, 1.3, 05/02/11 01:00, 2.5, 05/02/11 01:00, 0.5, 05/02/11 02:00, 2.06, 05/02/11 13:00, -11.8,  05/02/11 08:00, 60, 05/02/11 15:00, 0.8, 05/02/11 01:00, 1.2, 05/02/11 06:00, 2.4, 05/02/11 07:00, 
 05/02/12, -7.3, 77, 0.8, 1.2, 2.4, 0.5, 13.53, -4.5,  05/02/12 13:00, 98, 05/02/12 08:00, 0.8, 05/02/12 01:00, 1.2, 05/02/12 01:00, 2.5, 05/02/12 09:00, 0.5, 05/02/12 03:00, 2.22, 05/02/12 12:00, -9.5,  05/02/12 07:00, 58, 05/02/12 15:00, 0.7, 05/02/12 04:00, 1.2, 05/02/12 01:00, 2.3, 05/02/12 15:00, 
 05/02/13, -5.9, 75, 0.7, 1.2, 2.3, 3, 10.66, -2.8,  05/02/13 12:00, 98, 05/02/13 20:00, 0.8, 05/02/13 01:00, 1.3, 05/02/13 12:00, 2.4, 05/02/13 12:00, 1.5, 05/02/13 21:00, 1.98, 05/02/13 12:00, -9.4,  05/02/13 04:00, 57, 05/02/13 09:00, 0.7, 05/02/13 07:00, 1.2, 05/02/13 01:00, 2.3, 05/02/13 01:00, 
 05/02/14, -5.9, 78, 0.7, 1.2, 2.3, 2.5, 17.04, -2.3,  05/02/14 14:00, 96, 05/02/14 03:00, 0.7, 05/02/14 01:00, 1.2, 05/02/14 01:00, 2.3, 05/02/14 01:00, 0.5, 05/02/14 01:00, 2.7, 05/02/14 12:00, -8.9,  05/02/14 07:00, 50, 05/02/14 23:00, 0.7, 05/02/14 01:00, 1.2, 05/02/14 01:00, 2.3, 05/02/14 01:00, 
 05/02/15, -0.5, 37, 0.7, 1.2, 2.4, 0.5, 15.53, 2.7,  05/02/16 00:00, 70, 05/02/15 19:00, 0.8, 05/02/15 12:00, 1.3, 05/02/15 12:00, 2.4, 05/02/15 12:00, 0.5, 05/02/15 04:00, 2.64, 05/02/15 13:00, -4.1,  05/02/15 02:00, 13, 05/02/15 06:00, 0.7, 05/02/15 01:00, 1.2, 05/02/15 01:00, 2.3, 05/02/15 01:00, 
 05/02/16, 2.1, 97, 0.7, 1.2, 2.3, 16, 2.09, 4.3,  05/02/16 17:00, 99, 05/02/16 03:00, 0.7, 05/02/16 01:00, 1.2, 05/02/16 01:00, 2.4, 05/02/16 01:00, 2.5, 05/02/16 07:00, 0.41, 05/02/16 12:00, -2.5,  05/02/16 02:00, 64, 05/02/16 01:00, 0.7, 05/02/16 01:00, 1.1, 05/02/16 05:00, 2.2, 05/02/16 17:00, 
 05/02/17, -1.9, 98, 0.8, 1.2, 2.3, 0, 7.19, 1.3,  05/02/17 01:00, 99, 05/02/17 01:00, 0.8, 05/02/17 12:00, 1.2, 05/02/17 01:00, 2.3, 05/02/17 01:00, 0,   /  /     :, 1.45, 05/02/17 13:00, -4.9,  05/02/18 00:00, 89, 05/02/17 15:00, 0.7, 05/02/17 01:00, 1.1, 05/02/17 02:00, 2.2, 05/02/17 02:00, 
 05/02/18, -1.9, 91, 0.7, 1.2, 2.2, 13.5, 10.77, 3.7,  05/02/18 14:00, 99, 05/02/18 02:00, 0.8, 05/02/18 14:00, 1.2, 05/02/18 01:00, 2.3, 05/02/18 03:00, 4, 05/02/18 22:00, 2.32, 05/02/18 12:00, -6.5,  05/02/18 07:00, 68, 05/02/18 14:00, 0.7, 05/02/18 01:00, 1.1, 05/02/18 04:00, 2.2, 05/02/18 01:00, 
 05/02/19, 0.3, 99, 0.7, 1.1, 2.2, 13, 3.99, 2.6,  05/02/19 16:00, 99, 05/02/19 01:00, 0.7, 05/02/19 01:00, 1.2, 05/02/19 02:00, 2.2, 05/02/19 01:00, 2.5, 05/02/19 19:00, 1.1, 05/02/19 13:00, -1.6,  05/02/19 01:00, 99, 05/02/19 01:00, 0.7, 05/02/19 01:00, 1.1, 05/02/19 01:00, 2.1, 05/02/19 21:00, 
 05/02/20, -4.4, 89, 0.7, 1.1, 2.1, 1, 5.81, 0.3,  05/02/20 01:00, 99, 05/02/20 01:00, 0.7, 05/02/20 01:00, 1.2, 05/02/20 09:00, 2.1, 05/02/20 01:00, 1, 05/02/20 13:00, 0.96, 05/02/20 15:00, -9.8,  05/02/21 00:00, 75, 05/02/20 17:00, 0.7, 05/02/20 01:00, 1.1, 05/02/20 01:00, 2.1, 05/02/20 01:00, 
 05/02/21, -8.8, 80, 0.7, 1.1, 2.1, 0.5, 4.9, -4.8,  05/02/21 12:00, 93, 05/02/21 17:00, 0.8, 05/02/21 11:00, 1.2, 05/02/21 09:00, 2.2, 05/02/21 11:00, 0.5, 05/02/21 15:00, 0.97, 05/02/21 14:00, -11.4,  05/02/21 06:00, 68, 05/02/21 10:00, 0.7, 05/02/21 01:00, 1.1, 05/02/21 01:00, 2.1, 05/02/21 01:00, 
 05/02/22, -7.2, 68, 0.7, 1.1, 2.1, 0.5, 8.57, -3.7,  05/02/22 11:00, 82, 05/02/22 05:00, 0.7, 05/02/22 01:00, 1.2, 05/02/22 11:00, 2.2, 05/02/22 18:00, 0.5, 05/02/22 18:00, 1.91, 05/02/22 15:00, -11.2,  05/02/22 07:00, 50, 05/02/22 23:00, 0.7, 05/02/22 01:00, 1.1, 05/02/22 01:00, 2.1, 05/02/22 01:00, 
 05/02/23, -3.7, 88, 0.6, 1.1, 2.1, 4, 3.71, -0.7,  05/02/23 13:00, 99, 05/02/23 05:00, 0.7, 05/02/23 01:00, 1.2, 05/02/23 18:00, 2.1, 05/02/23 01:00, 1, 05/02/23 06:00, 0.83, 05/02/23 13:00, -6.8,  05/02/24 00:00, 46, 05/02/23 01:00, 0.5, 05/02/23 10:00, 1.1, 05/02/23 01:00, 2.1, 05/02/23 01:00, 
 05/02/24, -2.5, 77, 0.6, 1.1, 2.1, 3.5, 4.76, 1.4,  05/02/24 11:00, 99, 05/02/24 18:00, 0.7, 05/02/24 13:00, 1.1, 05/02/24 02:00, 2.2, 05/02/24 13:00, 1.5, 05/02/24 18:00, 0.98, 05/02/24 10:00, -6.1,  05/02/24 03:00, 29, 05/02/24 11:00, 0.5, 05/02/24 05:00, 1, 05/02/24 01:00, 2.1, 05/02/24 01:00, 
 05/02/25, -2.6, 89, 0.6, 1.1, 2.1, 1, 11.31, 1.4,  05/02/25 14:00, 99, 05/02/25 01:00, 0.6, 05/02/25 01:00, 1.1, 05/02/25 01:00, 2.2, 05/02/25 07:00, 0.5, 05/02/25 01:00, 2.45, 05/02/25 15:00, -7.7,  05/02/26 00:00, 66, 05/02/25 14:00, 0.6, 05/02/25 01:00, 1, 05/02/25 02:00, 2.1, 05/02/25 01:00, 
 05/02/26, -9, 84, 0.6, 1.1, 2.1, 2, 14.84, -6.1,  05/02/26 14:00, 98, 05/02/26 03:00, 0.7, 05/02/26 12:00, 1.1, 05/02/26 05:00, 2.2, 05/02/26 12:00, 0.5, 05/02/26 03:00, 2.22, 05/02/26 13:00, -11,  05/02/26 20:00, 49, 05/02/26 15:00, 0.6, 05/02/26 01:00, 1, 05/02/26 01:00, 2.1, 05/02/26 01:00, 
 05/02/27, -9.1, 73, 0.5, 1, 2.1, 1, 17.33, -5.1,  05/02/27 15:00, 92, 05/02/27 04:00, 0.6, 05/02/27 01:00, 1.1, 05/02/27 11:00, 2.1, 05/02/27 01:00, 0.5, 05/02/27 01:00, 2.65, 05/02/27 14:00, -13.2,  05/02/27 07:00, 51, 05/02/27 18:00, 0.4, 05/02/28 00:00, 1, 05/02/27 01:00, 2.1, 05/02/27 01:00, 
 05/02/28, -5.3, 70, 0.5, 1, 2.1, 0.5, 16.57, -0.6,  05/02/28 13:00, 98, 05/02/28 23:00, 0.6, 05/02/28 13:00, 1.1, 05/02/28 12:00, 2.2, 05/02/28 13:00, 0.5, 05/02/28 17:00, 2.97, 05/02/28 12:00, -8.8,  05/02/28 01:00, 53, 05/02/28 13:00, 0.4, 05/02/28 03:00, 0.9, 05/02/28 21:00, 2, 05/02/28 22:00, 
 05/03/01, -7.7, 76, 0.5, 1, 2.1, 0, 18.16, -3.6,  05/03/01 13:00, 97, 05/03/01 01:00, 0.5, 05/03/01 01:00, 1, 05/03/01 04:00, 2.1, 05/03/01 01:00, 0,   /  /     :, 2.53, 05/03/01 13:00, -10.3,  05/03/01 22:00, 57, 05/03/01 13:00, 0.4, 05/03/02 00:00, 0.9, 05/03/01 01:00, 2, 05/03/01 14:00, 
 05/03/02, -6.2, 77, 0.5, 0.9, 2, 2, 10.29, -2.3,  05/03/02 14:00, 98, 05/03/02 19:00, 0.5, 05/03/02 01:00, 1, 05/03/02 12:00, 2, 05/03/02 01:00, 0.5, 05/03/02 20:00, 1.6, 05/03/02 14:00, -9.8,  05/03/02 05:00, 59, 05/03/02 04:00, 0.4, 05/03/02 02:00, 0.9, 05/03/02 01:00, 2, 05/03/02 01:00, 
 05/03/03, -4.2, 75, 0.6, 1, 2.1, 0.5, 14.88, -0.3,  05/03/03 15:00, 97, 05/03/04 00:00, 0.6, 05/03/03 11:00, 1, 05/03/03 04:00, 2.1, 05/03/03 09:00, 0.5, 05/03/04 00:00, 2.42, 05/03/03 14:00, -10.8,  05/03/03 05:00, 51, 05/03/03 12:00, 0.5, 05/03/03 01:00, 0.9, 05/03/03 01:00, 2, 05/03/03 01:00, 
 05/03/04, -2.8, 97, 0.5, 1, 2.1, 11, 4.19, -0.6,  05/03/04 10:00, 99, 05/03/04 07:00, 0.6, 05/03/04 11:00, 1, 05/03/04 01:00, 2.1, 05/03/04 01:00, 1.5, 05/03/04 15:00, 0.64, 05/03/04 12:00, -5.6,  05/03/04 22:00, 93, 05/03/04 21:00, 0.5, 05/03/04 01:00, 1, 05/03/04 01:00, 2, 05/03/04 02:00, 
 05/03/05, -6, 96, 0.5, 1, 2, 6.5, 9.03, -3.5,  05/03/05 14:00, 99, 05/03/05 01:00, 0.5, 05/03/05 01:00, 1, 05/03/05 01:00, 2.1, 05/03/05 02:00, 2, 05/03/05 02:00, 1.71, 05/03/05 14:00, -7.5,  05/03/05 23:00, 89, 05/03/05 14:00, 0.5, 05/03/05 01:00, 0.9, 05/03/05 23:00, 2, 05/03/05 01:00, 
 05/03/06, -6.4, 80, 0.5, 1, 2, 0.5, 12.37, -2.9,  05/03/06 15:00, 96, 05/03/06 03:00, 0.5, 05/03/06 01:00, 1, 05/03/06 01:00, 2, 05/03/06 01:00, 0.5, 05/03/06 07:00, 2.17, 05/03/06 14:00, -8.8,  05/03/06 20:00, 36, 05/03/07 00:00, 0.5, 05/03/06 01:00, 0.9, 05/03/06 03:00, 2, 05/03/06 01:00, 
 05/03/07, -2.6, 46, 0.4, 1, 2, 0, 21.54, 4.1,  05/03/07 14:00, 68, 05/03/07 19:00, 0.5, 05/03/07 02:00, 1, 05/03/07 02:00, 2, 05/03/07 01:00, 0,   /  /     :, 3.06, 05/03/07 13:00, -8.8,  05/03/07 02:00, 25, 05/03/07 05:00, 0.3, 05/03/07 03:00, 0.9, 05/03/07 01:00, 1.9, 05/03/07 19:00, 
 05/03/08, 0.5, 72, 0.4, 0.9, 2, 0, 16.05, 5.3,  05/03/08 13:00, 85, 05/03/08 06:00, 0.4, 05/03/08 01:00, 1, 05/03/08 02:00, 2, 05/03/08 01:00, 0,   /  /     :, 2.94, 05/03/08 13:00, -4,  05/03/08 03:00, 54, 05/03/08 13:00, 0.3, 05/03/08 04:00, 0.8, 05/03/09 00:00, 1.8, 05/03/08 21:00, 
 05/03/09, 2.8, 52, 0.4, 0.9, 1.9, 0, 20.17, 6.3,  05/03/09 13:00, 95, 05/03/09 05:00, 0.5, 05/03/09 10:00, 1, 05/03/09 07:00, 2, 05/03/09 05:00, 0,   /  /     :, 2.98, 05/03/09 13:00, 0,  05/03/10 00:00, 23, 05/03/09 20:00, 0.4, 05/03/09 01:00, 0.8, 05/03/09 01:00, 1.8, 05/03/09 20:00, 
 05/03/10, 4.5, 68, 0.5, 0.9, 2, 0, 16.19, 8.6,  05/03/10 13:00, 91, 05/03/10 21:00, 0.6, 05/03/10 11:00, 0.9, 05/03/10 01:00, 2, 05/03/10 01:00, 0,   /  /     :, 2.72, 05/03/10 12:00, -0.1,  05/03/10 03:00, 43, 05/03/10 01:00, 0.4, 05/03/10 01:00, 0.8, 05/03/10 06:00, 1.8, 05/03/10 03:00, 
 05/03/11, 4.8, 98, 0.4, 0.8, 1.8, 7, 2.96, 6.2,  05/03/11 12:00, 99, 05/03/11 04:00, 0.4, 05/03/11 01:00, 0.8, 05/03/11 01:00, 1.9, 05/03/11 01:00, 2, 05/03/11 13:00, 0.8, 05/03/11 12:00, 1.2,  05/03/12 00:00, 87, 05/03/11 02:00, 0.3, 05/03/11 14:00, 0.7, 05/03/11 17:00, 1.6, 05/03/11 20:00, 
 05/03/12, -4.4, 93, 0.4, 0.8, 1.8, 6, 7.78, 0.8,  05/03/12 01:00, 99, 05/03/12 01:00, 0.4, 05/03/12 05:00, 0.8, 05/03/12 04:00, 1.8, 05/03/12 02:00, 1, 05/03/12 12:00, 1.71, 05/03/12 13:00, -10.1,  05/03/13 00:00, 79, 05/03/12 13:00, 0.3, 05/03/12 01:00, 0.7, 05/03/12 01:00, 1.7, 05/03/12 01:00, 
 05/03/13, -9.4, 89, 0.4, 0.8, 1.7, 4.5, 10.73, -6.7,  05/03/13 13:00, 95, 05/03/13 04:00, 0.4, 05/03/13 01:00, 0.9, 05/03/13 03:00, 1.8, 05/03/13 03:00, 1, 05/03/13 17:00, 2.55, 05/03/13 12:00, -10.9,  05/03/13 06:00, 78, 05/03/13 14:00, 0.3, 05/03/13 04:00, 0.8, 05/03/13 01:00, 1.7, 05/03/13 01:00, 
 05/03/14, -8.5, 86, 0.3, 0.8, 1.7, 2, 10.43, -5.4,  05/03/14 15:00, 93, 05/03/14 03:00, 0.4, 05/03/14 01:00, 0.9, 05/03/14 01:00, 1.9, 05/03/14 18:00, 0.5, 05/03/14 02:00, 1.86, 05/03/14 13:00, -11.7,  05/03/14 06:00, 70, 05/03/14 23:00, 0.3, 05/03/14 04:00, 0.8, 05/03/14 03:00, 1.7, 05/03/14 01:00, 
 05/03/15, -3.8, 79, 0.3, 0.9, 1.8, 1.5, 13.03, 0.6,  05/03/15 14:00, 99, 05/03/15 20:00, 0.3, 05/03/15 01:00, 0.9, 05/03/15 01:00, 1.9, 05/03/15 11:00, 1, 05/03/16 00:00, 2.11, 05/03/15 12:00, -10.2,  05/03/15 04:00, 57, 05/03/15 11:00, 0.2, 05/03/15 07:00, 0.8, 05/03/15 03:00, 1.7, 05/03/15 17:00, 
 05/03/16, 0.5, 77, 0.3, 0.8, 1.8, 3, 15.98, 4.5,  05/03/16 15:00, 99, 05/03/16 01:00, 0.4, 05/03/16 15:00, 0.9, 05/03/16 04:00, 1.9, 05/03/16 04:00, 1.5, 05/03/16 01:00, 2.69, 05/03/16 13:00, -2.8,  05/03/16 06:00, 48, 05/03/17 00:00, 0.3, 05/03/16 01:00, 0.8, 05/03/16 01:00, 1.7, 05/03/16 21:00, 
 05/03/17, 4.4, 80, 0.3, 0.7, 1.7, 26, 2.5, 6.8,  05/03/17 14:00, 99, 05/03/17 11:00, 0.3, 05/03/17 01:00, 0.8, 05/03/17 01:00, 1.9, 05/03/17 04:00, 4, 05/03/17 15:00, 0.59, 05/03/17 11:00, 0,  05/03/17 01:00, 33, 05/03/17 02:00, 0.2, 05/03/17 13:00, 0.6, 05/03/17 21:00, 1.6, 05/03/17 20:00, 
 05/03/18, -2.9, 97, 0.3, 0.7, 1.7, 14.5, 3.82, 1.3,  05/03/18 01:00, 99, 05/03/18 01:00, 0.4, 05/03/18 16:00, 0.8, 05/03/18 21:00, 1.7, 05/03/18 02:00, 2, 05/03/18 03:00, 0.6, 05/03/18 15:00, -7.5,  05/03/18 23:00, 86, 05/03/18 21:00, 0.2, 05/03/18 01:00, 0.6, 05/03/18 01:00, 1.6, 05/03/18 01:00, 
 05/03/19, -5.6, 78, 0.3, 0.8, 1.7, 0.5, 19.57, -1.4,  05/03/19 15:00, 93, 05/03/19 02:00, 0.3, 05/03/19 01:00, 0.8, 05/03/19 01:00, 1.7, 05/03/19 01:00, 0.5, 05/03/19 03:00, 2.25, 05/03/19 11:00, -9.6,  05/03/19 04:00, 62, 05/03/19 15:00, 0.3, 05/03/19 01:00, 0.8, 05/03/19 01:00, 1.6, 05/03/19 20:00, 